This is the latest recevied weather packets stored in our database for station/object JR5YHL-13. If no packets are shown the sender has not sent any weather packets the latest 10 day(s).
| Time | Temp. | Humidity | Pressure | Rain* | Wind** | Luminosity | Snow |
|---|---|---|---|---|---|---|---|
| 1777801431 | 18.33° C | 99% | 1003.3 hPa | 6.35 mm | - | - | - |
| 1777800834 | 18.33° C | 99% | 1003.5 hPa | 6.1 mm | - | - | - |
| 1777800236 | 18.33° C | 99% | 1003.9 hPa | 4.57 mm | - | - | - |
| 1777799639 | 18.33° C | 99% | 1003.9 hPa | 4.32 mm | - | - | - |
| 1777799042 | 18.33° C | 99% | 1003.7 hPa | 3.81 mm | - | - | - |
| 1777798444 | 17.78° C | 99% | 1004 hPa | 4.06 mm | - | - | - |
| 1777797847 | 17.78° C | 99% | 1004.2 hPa | 5.33 mm | - | - | - |
| 1777797249 | 17.78° C | 99% | 1004.4 hPa | 6.35 mm | - | - | - |
| 1777796652 | 17.78° C | 99% | 1004.7 hPa | 6.86 mm | - | - | - |
| 1777796055 | 17.78° C | 99% | 1004.8 hPa | 7.62 mm | - | - | - |
| 1777795458 | 17.78° C | 99% | 1005.2 hPa | 7.87 mm | - | - | - |
| 1777794860 | 17.78° C | 99% | 1005.2 hPa | 7.62 mm | - | - | - |
| 1777794263 | 17.78° C | 99% | 1005.4 hPa | 6.1 mm | - | - | - |
| 1777793665 | 17.78° C | 99% | 1005.4 hPa | 5.33 mm | - | - | - |
| 1777793068 | 17.78° C | 99% | 1005.3 hPa | 5.33 mm | - | - | - |
| 1777792470 | 17.78° C | 99% | 1005.8 hPa | 5.33 mm | - | - | - |
| 1777791873 | 17.22° C | 99% | 1005.9 hPa | 5.84 mm | - | - | - |
| 1777791275 | 17.22° C | 99% | 1005.8 hPa | 5.84 mm | - | - | - |
| 1777790677 | 17.22° C | 99% | 1005.9 hPa | 5.59 mm | - | - | - |
| 1777790080 | 17.22° C | 99% | 1006 hPa | 5.33 mm | - | - | - |
| 1777789482 | 17.22° C | 99% | 1006.4 hPa | 5.33 mm | - | - | - |
| 1777788885 | 17.22° C | 99% | 1006.4 hPa | 5.08 mm | - | - | - |
| 1777788287 | 17.22° C | 99% | 1006.6 hPa | 3.56 mm | - | - | - |
| 1777787690 | 17.22° C | 99% | 1006.7 hPa | 4.32 mm | - | - | - |
| 1777787092 | 17.22° C | 99% | 1006.9 hPa | 4.32 mm | - | - | - |
* Rain latest hour (hover to see other rain measurements)
** Current wind speed in m/s (hover to see current wind gust speed)